Home > Weather > Celje > Past weeks

Flag for Slovenia Weather for the Past 2 Weeks in Celje, Slovenia

Now
41 °F

Passing clouds.


Feels Like: 41 °F
Forecast: 35 / 46 °F
Wind: 2 mph from West

Location: Celje

Current Time: Feb 13, 2016 at 2:03:09 PM

Latest Report: Feb 13, 2016 at 1:00 PM


Visibility: 31 mi

Pressure: 29.41 "Hg

Humidity: 74%

Dew point: 33 °F

Location of CeljeLocation

Historic Weather in Celje — Graph

°F

Celje Temperature Yesterday

Maximum temperature yesterday: 35 °F (at 4:00 PM)
Minimum temperature yesterday: 27 °F (at 3:00 AM)
Average temperature yesterday: 32 °F

High & Low Weather Summary for the Past Weeks

 TemperatureHumidityPressure
High61 °F (Feb 1, 1:00 PM)98% (Jan 30, 12:00 AM)30.50 "Hg (Jan 30, 12:00 AM)
Low26 °F (Jan 30, 6:00 AM)35% (Feb 4, 3:00 PM)29.21 "Hg (Feb 10, 5:00 AM)
Average43 °F78%30.01 "Hg
* Reported Jan 29 12:00 Noon — Feb 13 12:00 Noon, Celje, Weather by CustomWeather, © 2016

Note: Actual official high and low records may vary slightly from our data, if they occured in-between our weather recording intervals... More about our weather records

Advertising

Celje Weather History for the Previous 24 Hours

 ConditionsComfort  
Time TempWeatherWind HumidityBarometerVisibility
12:00 PM
Sat, Feb 13
39 °FChilly.3 mph78%29.44 "HgN/A
11:00 AM36 °FChilly.3 mph91%29.44 "HgN/A
10:00 AM35 °FChilly.2 mph93%29.41 "HgN/A
9:00 AM33 °FChilly.2 mph97%29.41 "HgN/A
8:00 AM33 °FChilly.2 mph98%29.38 "HgN/A
7:00 AM32 °FLight snow. Low clouds.1 mph98%29.38 "Hg1 mi
6:00 AM32 °FHeavy snow. Low clouds.1 mph98%29.38 "Hg1 mi
5:00 AM32 °FChilly.1 mph98%29.38 "HgN/A
1:00 AM32 °FChilly.1 mph98%29.47 "HgN/A
10:00 PM
Fri, Feb 12
33 °FChilly.No wind97%29.57 "HgN/A
9:00 PM34 °FChilly.No wind97%29.59 "HgN/A
8:00 PM34 °FChilly.1 mph96%29.62 "HgN/A
7:00 PM34 °FFog.1 mph97%29.64 "Hg2 mi
6:00 PM33 °FChilly.1 mph97%29.66 "HgN/A
5:00 PM33 °FChilly.1 mph95%29.68 "HgN/A
4:00 PM35 °FChilly.1 mph95%29.69 "HgN/A
3:00 PM33 °FChilly.1 mph95%29.71 "HgN/A
2:00 PM33 °FLight snow. Low clouds.1 mph97%29.72 "Hg1 mi
Weather by CustomWeather, © 2016

See weather overviewHow to use our weather pages